• In Belarus
  • List of Countries
  • For 7 days
  • Water Temperature
  • Satellite Maps
  • Weather Map
  • Weather Widgets
  • user-avatar
    Login

    Hourly Weather Sumgayit

    Today, 18 July, Thursday

    Time Temperature Precipitation Wind Pressure Humidity
    00:00 +27°C° 0 mm 3 mps 733 mmHg 53%
    01:00 +26°C° 0 mm 3 mps 733 mmHg 56%
    02:00 +26°C° 0 mm 2 mps 733 mmHg 58%
    03:00 +25°C° 0 mm 2 mps 733 mmHg 60%
    04:00 +26°C° 0 mm 2 mps 733 mmHg 59%
    05:00 +26°C° 0 mm 2 mps 734 mmHg 58%
    06:00 +26°C° 0 mm 2 mps 734 mmHg 56%
    07:00 +28°C° 0 mm 1 mps 734 mmHg 51%
    08:00 +29°C° 0 mm 1 mps 734 mmHg 45%
    09:00 +31°C° 0 mm 1 mps 734 mmHg 39%
    10:00 +32°C° 0 mm 2 mps 734 mmHg 38%
    11:00 +34°C° 0 mm 2 mps 734 mmHg 36%
    12:00 +35°C° 0 mm 3 mps 734 mmHg 35%
    13:00 +34°C° 0 mm 3 mps 733 mmHg 35%
    14:00 +34°C° 0 mm 4 mps 733 mmHg 35%
    15:00 +34°C° 0 mm 4 mps 733 mmHg 35%
    16:00 +33°C° 0 mm 4 mps 733 mmHg 38%
    17:00 +31°C° 0 mm 3 mps 733 mmHg 41%
    18:00 +30°C° 0 mm 3 mps 733 mmHg 45%
    19:00 +29°C° 0 mm 2 mps 733 mmHg 47%
    20:00 +29°C° 0 mm 2 mps 733 mmHg 49%
    21:00 +28°C° 0 mm 1 mps 733 mmHg 51%
    22:00 +28°C° 0 mm 1 mps 733 mmHg 52%
    23:00 +28°C° 0 mm 1 mps 733 mmHg 53%

    Tomorrow, 19 July, Friday

    Time Temperature Precipitation Wind Pressure Humidity
    00:00 +27°C° 0 mm 2 mps 733 mmHg 54%
    01:00 +27°C° 0 mm 2 mps 733 mmHg 55%
    02:00 +27°C° 0 mm 2 mps 733 mmHg 56%
    03:00 +26°C° 0 mm 2 mps 733 mmHg 57%
    04:00 +27°C° 0 mm 3 mps 734 mmHg 54%
    05:00 +28°C° 0 mm 3 mps 734 mmHg 51%
    06:00 +28°C° 0 mm 4 mps 734 mmHg 49%
    07:00 +29°C° 0 mm 4 mps 735 mmHg 44%
    08:00 +32°C° 0 mm 4 mps 735 mmHg 40%
    09:00 +33°C° 0 mm 5 mps 736 mmHg 36%
    10:00 +34°C° 0 mm 6 mps 736 mmHg 35%
    11:00 +35°C° 0 mm 6 mps 736 mmHg 33%
    12:00 +35°C° 0 mm 7 mps 736 mmHg 32%
    13:00 +35°C° 0 mm 8 mps 735 mmHg 32%
    14:00 +35°C° 0 mm 9 mps 735 mmHg 32%
    15:00 +35°C° 0 mm 9 mps 735 mmHg 32%
    16:00 +34°C° 0 mm 10 mps 735 mmHg 33%
    17:00 +33°C° 0 mm 10 mps 735 mmHg 35%
    18:00 +33°C° 0 mm 11 mps 735 mmHg 36%
    19:00 +33°C° 0 mm 10 mps 736 mmHg 36%
    20:00 +32°C° 0 mm 10 mps 736 mmHg 37%
    21:00 +32°C° 0 mm 9 mps 736 mmHg 38%
    22:00 +31°C° 0 mm 8 mps 736 mmHg 40%
    23:00 +30°C° 0 mm 6 mps 737 mmHg 42%

    Day after tomorrow, 20 July, Saturday

    Time Temperature Precipitation Wind Pressure Humidity
    00:00 +29°C° 0 mm 5 mps 737 mmHg 44%
    01:00 +29°C° 0 mm 5 mps 737 mmHg 44%
    02:00 +29°C° 0 mm 5 mps 737 mmHg 45%
    03:00 +28°C° 0 mm 5 mps 737 mmHg 45%
    04:00 +29°C° 0 mm 5 mps 737 mmHg 44%
    05:00 +29°C° 0 mm 5 mps 738 mmHg 42%
    06:00 +30°C° 0 mm 5 mps 738 mmHg 41%
    07:00 +32°C° 0 mm 6 mps 739 mmHg 37%
    08:00 +33°C° 0 mm 8 mps 739 mmHg 34%
    09:00 +36°C° 0 mm 10 mps 739 mmHg 30%
    10:00 +36°C° 0 mm 10 mps 739 mmHg 30%
    11:00 +37°C° 0 mm 11 mps 740 mmHg 30%
    12:00 +37°C° 0 mm 11 mps 740 mmHg 30%
    13:00 +37°C° 0 mm 11 mps 740 mmHg 31%
    14:00 +36°C° 0 mm 12 mps 739 mmHg 32%
    15:00 +36°C° 0 mm 12 mps 739 mmHg 34%
    16:00 +34°C° 0 mm 12 mps 739 mmHg 35%
    17:00 +33°C° 0 mm 12 mps 739 mmHg 36%
    18:00 +33°C° 0 mm 12 mps 740 mmHg 37%
    19:00 +32°C° 0 mm 11 mps 740 mmHg 37%
    20:00 +32°C° 0 mm 10 mps 740 mmHg 38%
    21:00 +31°C° 0 mm 10 mps 740 mmHg 38%
    22:00 +31°C° 0 mm 9 mps 740 mmHg 39%
    23:00 +29°C° 0 mm 9 mps 740 mmHg 41%

    21 July, Sunday

    Time Temperature Precipitation Wind Pressure Humidity
    00:00 +29°C° 0 mm 8 mps 740 mmHg 42%
    01:00 +29°C° 0 mm 8 mps 740 mmHg 42%
    02:00 +28°C° 0 mm 7 mps 740 mmHg 43%
    03:00 +28°C° 0 mm 6 mps 740 mmHg 44%
    04:00 +28°C° 0 mm 6 mps 740 mmHg 43%
    05:00 +28°C° 0 mm 7 mps 740 mmHg 43%
    06:00 +29°C° 0 mm 7 mps 741 mmHg 43%
    07:00 +30°C° 0 mm 7 mps 741 mmHg 40%
    08:00 +32°C° 0 mm 7 mps 741 mmHg 37%
    09:00 +33°C° 0 mm 8 mps 741 mmHg 35%
    10:00 +34°C° 0 mm 7 mps 741 mmHg 33%
    11:00 +34°C° 0 mm 7 mps 740 mmHg 31%
    12:00 +35°C° 0 mm 6 mps 740 mmHg 30%
    13:00 +35°C° 0 mm 6 mps 739 mmHg 30%
    14:00 +35°C° 0 mm 5 mps 739 mmHg 30%
    15:00 +35°C° 0 mm 5 mps 738 mmHg 30%
    16:00 +34°C° 0 mm 5 mps 738 mmHg 32%
    17:00 +34°C° 0 mm 5 mps 738 mmHg 34%
    18:00 +33°C° 0 mm 5 mps 738 mmHg 36%
    19:00 +32°C° 0 mm 5 mps 738 mmHg 39%
    20:00 +30°C° 0 mm 4 mps 738 mmHg 41%
    21:00 +29°C° 0 mm 4 mps 739 mmHg 43%
    22:00 +29°C° 0 mm 4 mps 738 mmHg 44%
    23:00 +29°C° 0 mm 4 mps 738 mmHg 44%

    22 July, Monday

    Time Temperature Precipitation Wind Pressure Humidity
    00:00 +28°C° 0 mm 4 mps 738 mmHg 44%
    01:00 +28°C° 0 mm 5 mps 738 mmHg 45%
    02:00 +28°C° 0 mm 5 mps 738 mmHg 45%
    03:00 +28°C° 0 mm 6 mps 737 mmHg 45%
    04:00 +28°C° 0 mm 6 mps 737 mmHg 43%
    05:00 +29°C° 0 mm 6 mps 737 mmHg 41%
    06:00 +29°C° 0 mm 7 mps 737 mmHg 40%
    07:00 +32°C° 0 mm 7 mps 737 mmHg 36%
    08:00 +33°C° 0 mm 8 mps 738 mmHg 31%
    09:00 +35°C° 0 mm 8 mps 738 mmHg 27%
    10:00 +35°C° 0 mm 8 mps 737 mmHg 27%
    11:00 +37°C° 0 mm 8 mps 737 mmHg 27%
    12:00 +37°C° 0 mm 9 mps 737 mmHg 26%
    13:00 +37°C° 0 mm 9 mps 736 mmHg 27%
    14:00 +37°C° 0 mm 9 mps 736 mmHg 28%
    15:00 +37°C° 0 mm 9 mps 736 mmHg 29%
    16:00 +35°C° 0 mm 9 mps 735 mmHg 31%
    17:00 +34°C° 0 mm 9 mps 735 mmHg 33%
    18:00 +33°C° 0 mm 9 mps 735 mmHg 35%
    19:00 +32°C° 0 mm 9 mps 735 mmHg 36%
    20:00 +31°C° 0 mm 8 mps 735 mmHg 37%
    21:00 +31°C° 0 mm 8 mps 736 mmHg 38%
    22:00 +31°C° 0 mm 9 mps 735 mmHg 37%
    23:00 +31°C° 0 mm 10 mps 735 mmHg 36%

    23 July, Tuesday

    Time Temperature Precipitation Wind Pressure Humidity
    00:00 +31°C° 0 mm 11 mps 735 mmHg 34%
    01:00 +29°C° 0 mm 10 mps 735 mmHg 35%
    02:00 +29°C° 0 mm 10 mps 735 mmHg 36%
    03:00 +29°C° 0 mm 10 mps 735 mmHg 36%
    04:00 +29°C° 0 mm 9 mps 735 mmHg 35%
    05:00 +31°C° 0 mm 9 mps 735 mmHg 34%
    06:00 +31°C° 0 mm 9 mps 735 mmHg 33%
    07:00 +32°C° 0 mm 9 mps 735 mmHg 31%
    08:00 +33°C° 0 mm 9 mps 735 mmHg 29%
    09:00 +36°C° 0 mm 10 mps 736 mmHg 27%
    10:00 +35°C° 0 mm 9 mps 736 mmHg 28%
    11:00 +35°C° 0 mm 9 mps 735 mmHg 30%
    12:00 +37°C° 0 mm 9 mps 735 mmHg 31%
    13:00 +37°C° 0 mm 9 mps 735 mmHg 32%
    14:00 +35°C° 0 mm 9 mps 735 mmHg 33%
    15:00 +36°C° 0 mm 10 mps 734 mmHg 34%
    16:00 +34°C° 0 mm 10 mps 734 mmHg 36%
    17:00 +33°C° 0 mm 10 mps 734 mmHg 38%
    18:00 +32°C° 0 mm 10 mps 734 mmHg 40%
    19:00 +32°C° 0 mm 9 mps 734 mmHg 41%
    20:00 +31°C° 0 mm 8 mps 734 mmHg 42%
    21:00 +29°C° 0 mm 7 mps 734 mmHg 43%
    22:00 +29°C° 0 mm 7 mps 734 mmHg 43%
    23:00 +29°C° 0 mm 6 mps 734 mmHg 43%
    Show more